datetime,inst air temperature
1998-10-30,27.5
1998-10-31,27.14
1998-11-01,36.5
1998-11-02,26.96
1998-11-03,31.46
1998-11-04,34.34
1998-11-05,33.44
1998-11-06,25.52
1998-11-07,29.66
1998-11-08,28.4
1998-11-09,20.84
1998-11-10,26.42
1998-11-11,29.84
1998-11-12,21.92
1998-11-13,30.74
1998-11-14,38.66
1998-11-15,36.86
1998-11-16,33.08
1998-11-17,35.24
1998-11-18,28.76
1998-11-19,24.62
1998-11-20,34.88
1998-11-21,35.6
1998-11-22,34.88
1998-11-23,34.52
1998-11-24,31.46
1998-11-25,33.8
1998-11-26,35.24
1998-11-27,35.78
1998-11-28,30.74
1998-11-29,27.68
1998-11-30,29.84
1998-12-01,32.0
1998-12-02,33.26
1998-12-03,28.4
1998-12-04,16.52
1998-12-05,7.7
1998-12-06,18.86
1998-12-07,16.7
1998-12-08,26.06
1998-12-09,10.76
1998-12-10,18.68
1998-12-11,22.64
1998-12-12,34.34
1998-12-13,38.84
1998-12-14,33.08
1998-12-15,25.16
1998-12-16,27.32
1998-12-17,26.78
1998-12-18,24.98
1998-12-19,17.78
1998-12-20,14.54
1998-12-21,-5.8
1998-12-22,4.82
1998-12-23,5.18
1998-12-24,16.34
1998-12-25,27.32
1998-12-26,27.86
1998-12-27,26.06
1998-12-28,33.08
1998-12-29,35.96
1998-12-30,25.52
1998-12-31,35.42
1999-01-01,25.7
1999-01-02,22.28
1999-01-03,23.18
1999-01-04,20.84
1999-01-05,24.98
1999-01-06,25.52
1999-01-07,25.34
1999-01-08,21.38
1999-01-09,20.66
1999-01-10,23.72
1999-01-11,26.06
1999-01-12,32.0
1999-01-13,32.36
1999-01-14,30.02
1999-01-15,36.14
1999-01-16,35.6
1999-01-17,30.2
1999-01-18,31.82
1999-01-19,33.8
1999-01-20,32.72
1999-01-21,27.32
1999-01-22,24.98
1999-01-23,28.58
1999-01-24,22.1
1999-01-25,15.26
1999-01-26,17.6
1999-01-27,20.3
1999-01-28,16.7
1999-01-29,26.6
1999-01-30,28.94
1999-01-31,24.44
1999-02-01,10.04
1999-02-02,16.88
1999-02-03,26.06
1999-02-04,33.98
1999-02-05,9.5
1999-02-06,27.5
1999-02-07,33.44
1999-02-08,20.12
1999-02-09,29.48
1999-02-10,9.5
1999-02-11,6.98
1999-02-12,23.36
1999-02-13,33.98
1999-02-14,29.48
1999-02-15,8.78
1999-02-16,28.76
1999-02-17,32.72
1999-02-18,30.74
1999-02-19,28.58
1999-02-20,13.82
1999-02-21,28.22
1999-02-22,26.42
1999-02-23,31.82
1999-02-24,34.7
1999-02-25,32.36
1999-02-26,15.26
1999-02-27,28.94
1999-02-28,36.68
1999-03-01,32.0
1999-03-02,21.92
1999-03-03,28.04
1999-03-04,24.08
1999-03-05,16.16
1999-03-06,20.84
1999-03-07,15.62
1999-03-08,27.68
1999-03-09,24.8
1999-03-10,20.12
1999-03-11,11.3
1999-03-12,15.98
1999-03-13,33.08
1999-03-14,34.34
1999-03-15,32.72
1999-03-16,31.1
1999-03-17,25.52
1999-03-18,37.4
1999-03-19,30.92
1999-03-20,42.98
1999-03-21,32.54
1999-03-22,30.2
1999-03-23,32.9
1999-03-24,35.42
1999-03-25,34.52
1999-03-26,34.88
1999-03-27,26.42
1999-03-28,27.14
1999-03-29,35.06
1999-03-30,23.18
1999-03-31,22.46
1999-04-01,22.64
1999-04-02,28.22
1999-04-03,31.82
1999-04-04,20.66
1999-04-05,25.7
1999-04-06,24.8
1999-04-07,28.4
1999-04-08,31.64
1999-04-09,18.32
1999-04-10,27.14
1999-04-11,30.56
1999-04-12,35.24
1999-04-13,40.64
1999-04-14,39.38
1999-04-15,42.62
1999-04-16,41.72
1999-04-17,43.7
1999-04-18,43.34
1999-04-19,43.7
1999-04-20,41.54
1999-04-21,37.76
1999-04-22,30.56
1999-04-23,35.6
1999-04-24,42.44
1999-04-25,45.5
1999-04-26,39.2
1999-04-27,30.92
1999-04-28,25.34
1999-04-29,31.64
1999-04-30,41.72
1999-05-01,46.94
1999-05-02,33.08
1999-05-03,32.54
1999-05-04,29.3
1999-05-05,29.3
1999-05-06,41.54
1999-05-07,33.8
1999-05-08,27.86
1999-05-09,27.32
1999-05-10,31.1
1999-05-11,39.92
1999-05-12,39.38
1999-05-13,31.64
1999-05-14,30.92
1999-05-15,27.14
1999-05-16,33.26
1999-05-17,42.8
1999-05-18,45.5
1999-05-19,40.82
1999-05-20,47.3
1999-05-21,41.0
1999-05-22,46.76
1999-05-23,50.9
1999-05-24,53.06
1999-05-25,56.66
1999-05-26,51.8
1999-05-27,51.98
1999-05-28,56.3
1999-05-29,47.66
1999-05-30,47.12
1999-05-31,44.6
1999-06-01,48.38
1999-06-02,38.66
1999-06-03,38.48
1999-06-04,40.64
1999-06-05,46.22
1999-06-06,42.08
1999-06-07,35.06
1999-06-08,34.7
1999-06-09,38.66
1999-06-10,43.52
1999-06-11,48.02
1999-06-12,51.44
1999-06-13,51.8
1999-06-14,54.68
1999-06-15,55.04
1999-06-16,52.16
1999-06-17,53.42
1999-06-18,55.58
1999-06-19,50.54
1999-06-20,52.88
1999-06-21,51.98
1999-06-22,51.08
1999-06-23,57.56
1999-06-24,61.88
1999-06-25,42.44
1999-06-26,44.24
1999-06-27,46.22
1999-06-28,54.14
1999-06-29,59.36
1999-06-30,58.64
1999-07-01,55.76
1999-07-02,49.64
1999-07-03,44.6
1999-07-04,40.82
1999-07-05,50.18
1999-07-06,53.06
1999-07-07,51.8
1999-07-08,53.24
1999-07-09,54.14
1999-07-10,66.2
1999-07-11,68.18
1999-07-12,68.72
1999-07-13,73.04
1999-07-14,62.96
1999-07-15,50.9
1999-07-16,55.04
1999-07-17,51.62
1999-07-18,49.82
1999-07-19,51.8
1999-07-20,56.84
1999-07-21,50.9
1999-07-22,49.82
1999-07-23,
1999-07-24,55.4
1999-07-25,55.94
1999-07-26,62.42
1999-07-27,60.62
1999-07-28,54.86
1999-07-29,59.36
1999-07-30,56.12
1999-07-31,58.64
1999-08-01,61.52
1999-08-02,56.66
1999-08-03,56.48
1999-08-04,62.42
1999-08-05,60.62
1999-08-06,50.9
1999-08-07,42.44
1999-08-08,46.76
1999-08-09,53.6
1999-08-10,60.26
1999-08-11,54.5
1999-08-12,54.68
1999-08-13,55.76
1999-08-14,50.0
1999-08-15,45.86
1999-08-16,56.84
1999-08-17,54.68
1999-08-18,53.24
1999-08-19,57.56
1999-08-20,58.64
1999-08-21,60.44
1999-08-22,60.26
1999-08-23,65.48
1999-08-24,53.78
1999-08-25,59.18
1999-08-26,67.1
1999-08-27,68.18
1999-08-28,63.5
1999-08-29,56.66
1999-08-30,53.06
1999-08-31,35.24
1999-09-01,37.58
1999-09-02,46.94
1999-09-03,44.42
1999-09-04,42.8
1999-09-05,49.46
1999-09-06,54.14
1999-09-07,51.26
1999-09-08,53.42
1999-09-09,55.04
1999-09-10,56.3
1999-09-11,55.76
1999-09-12,59.0
1999-09-13,60.62
1999-09-14,56.66
1999-09-15,61.16
1999-09-16,61.34
1999-09-17,52.34
1999-09-18,59.54
1999-09-19,57.02
1999-09-20,58.28
1999-09-21,55.58
1999-09-22,51.98
1999-09-23,63.5
1999-09-24,55.22
1999-09-25,55.22
1999-09-26,41.36
1999-09-27,39.56
1999-09-28,39.38
1999-09-29,40.64
1999-09-30,45.14
1999-10-01,49.28
1999-10-02,41.54
1999-10-03,44.24
1999-10-04,44.6
1999-10-05,52.52
1999-10-06,46.22
1999-10-07,34.16
1999-10-08,40.1
1999-10-09,45.5
1999-10-10,43.16
1999-10-11,52.88
1999-10-12,43.7
1999-10-13,41.36
1999-10-14,44.6
1999-10-15,
1999-10-16,35.6
1999-10-17,35.42
1999-10-18,34.16
1999-10-19,46.76
1999-10-20,39.38
1999-10-21,40.82
1999-10-22,41.54
1999-10-23,42.26
1999-10-24,39.92
1999-10-25,44.78
1999-10-26,44.96
1999-10-27,36.14
1999-10-28,41.72
1999-10-29,30.38
1999-10-30,31.28
1999-10-31,44.96
1999-11-01,35.78
1999-11-02,31.28
1999-11-03,35.6
1999-11-04,42.98
1999-11-05,46.4
1999-11-06,47.3
1999-11-07,47.3
1999-11-08,40.82
1999-11-09,37.58
1999-11-10,39.2
1999-11-11,42.44
1999-11-12,45.5
1999-11-13,34.7
1999-11-14,41.36
1999-11-15,44.78
1999-11-16,43.34
1999-11-17,31.82
1999-11-18,27.68
1999-11-19,35.6
1999-11-20,34.34
1999-11-21,33.98
1999-11-22,19.22
1999-11-23,26.24
1999-11-24,31.46
1999-11-25,39.2
1999-11-26,37.22
1999-11-27,37.04
1999-11-28,31.82
1999-11-29,41.54
1999-11-30,36.86
1999-12-01,28.58
1999-12-02,30.92
1999-12-03,19.4
1999-12-04,18.32
1999-12-05,30.2
1999-12-06,31.1
1999-12-07,29.3
1999-12-08,23.18
1999-12-09,28.94
1999-12-10,18.68
1999-12-11,23.0
1999-12-12,31.46
1999-12-13,28.4
1999-12-14,17.06
1999-12-15,29.3
1999-12-16,32.18
1999-12-17,34.7
1999-12-18,39.92
1999-12-19,25.34
1999-12-20,26.06
1999-12-21,24.8
1999-12-22,24.26
1999-12-23,23.9
1999-12-24,24.8
1999-12-25,24.98
1999-12-26,33.98
1999-12-27,36.32
1999-12-28,23.9
1999-12-29,23.0
1999-12-30,21.38
1999-12-31,22.28
2000-01-01,23.9
2000-01-02,17.96
2000-01-03,23.36
2000-01-04,34.16
2000-01-05,22.46
2000-01-06,12.02
2000-01-07,28.76
2000-01-08,29.3
2000-01-09,25.16
2000-01-10,30.56
2000-01-11,33.62
2000-01-12,24.08
2000-01-13,28.22
2000-01-14,38.66
2000-01-15,33.98
2000-01-16,40.28
2000-01-17,28.04
2000-01-18,31.1
2000-01-19,33.08
2000-01-20,33.98
2000-01-21,29.66
2000-01-22,29.3
2000-01-23,27.68
2000-01-24,32.36
2000-01-25,31.64
2000-01-26,31.28
2000-01-27,22.64
2000-01-28,19.58
2000-01-29,16.7
2000-01-30,27.68
2000-01-31,24.62
2000-02-01,30.74
2000-02-02,35.78
2000-02-03,33.62
2000-02-04,32.18
2000-02-05,34.34
2000-02-06,35.96
2000-02-07,35.06
2000-02-08,40.82
2000-02-09,31.64
2000-02-10,35.78
2000-02-11,34.7
2000-02-12,32.54
2000-02-13,31.64
2000-02-14,35.24
2000-02-15,31.64
2000-02-16,30.2
2000-02-17,30.2
2000-02-18,24.98
2000-02-19,23.9
2000-02-20,39.92
2000-02-21,35.78
2000-02-22,34.34
2000-02-23,27.5
2000-02-24,23.72
2000-02-25,24.8
2000-02-26,30.38
2000-02-27,35.42
2000-02-28,30.74
2000-02-29,31.82
2000-03-01,24.98
2000-03-02,35.78
2000-03-03,30.92
2000-03-04,30.38
2000-03-05,30.38
2000-03-06,26.78
2000-03-07,23.18
2000-03-08,30.38
2000-03-09,27.14
2000-03-10,27.86
2000-03-11,31.82
2000-03-12,28.58
2000-03-13,31.82
2000-03-14,40.46
2000-03-15,
2000-03-16,40.1
2000-03-17,26.42
2000-03-18,35.96
2000-03-19,42.08
2000-03-20,25.34
2000-03-21,28.58
2000-03-22,34.88
2000-03-23,35.06
2000-03-24,27.86
2000-03-25,36.32
2000-03-26,32.54
2000-03-27,36.32
2000-03-28,30.74
2000-03-29,28.58
2000-03-30,30.38
2000-03-31,36.68
2000-04-01,40.46
2000-04-02,46.76
2000-04-03,42.26
2000-04-04,50.54
2000-04-05,37.58
2000-04-06,38.12
2000-04-07,35.6
2000-04-08,46.04
2000-04-09,38.84
2000-04-10,33.62
2000-04-11,40.46
2000-04-12,45.5
2000-04-13,44.42
2000-04-14,37.58
2000-04-15,39.02
2000-04-16,37.76
2000-04-17,40.28
2000-04-18,32.18
2000-04-19,33.62
2000-04-20,40.28
2000-04-21,39.38
2000-04-22,46.4
2000-04-23,33.8
2000-04-24,30.74
2000-04-25,42.62
2000-04-26,39.02
2000-04-27,48.2
2000-04-28,32.0
2000-04-29,28.04
2000-04-30,40.82
2000-05-01,46.94
2000-05-02,39.2
2000-05-03,42.62
2000-05-04,40.82
2000-05-05,36.68
2000-05-06,37.4
2000-05-07,33.8
2000-05-08,40.64
2000-05-09,43.16
2000-05-10,37.22
2000-05-11,28.58
2000-05-12,28.4
2000-05-13,36.86
2000-05-14,43.34
2000-05-15,39.56
2000-05-16,38.3
2000-05-17,37.76
2000-05-18,42.8
2000-05-19,50.0
2000-05-20,52.88
2000-05-21,57.2
2000-05-22,55.76
2000-05-23,51.08
2000-05-24,51.98
2000-05-25,49.82
2000-05-26,43.52
2000-05-27,54.32
2000-05-28,51.44
2000-05-29,44.24
2000-05-30,42.26
2000-05-31,32.54
2000-06-01,46.04
2000-06-02,49.46
2000-06-03,51.62
2000-06-04,53.96
2000-06-05,60.26
2000-06-06,48.38
2000-06-07,49.1
2000-06-08,46.22
2000-06-09,35.78
2000-06-10,42.44
2000-06-11,37.4
2000-06-12,48.92
2000-06-13,43.16
2000-06-14,61.16
2000-06-15,60.44
2000-06-16,53.06
2000-06-17,56.3
2000-06-18,59.18
2000-06-19,50.54
2000-06-20,54.86
2000-06-21,61.7
2000-06-22,61.7
2000-06-23,60.98
2000-06-24,62.78
2000-06-25,60.62
2000-06-26,61.34
2000-06-27,61.52
2000-06-28,62.06
2000-06-29,65.66
2000-06-30,64.4
2000-07-01,56.66
2000-07-02,51.62
2000-07-03,50.18
2000-07-04,43.52
2000-07-05,47.84
2000-07-06,42.98
2000-07-07,50.54
2000-07-08,49.28
2000-07-09,50.36
2000-07-10,57.2
2000-07-11,59.0
2000-07-12,60.62
2000-07-13,56.84
2000-07-14,55.4
2000-07-15,59.9
2000-07-16,60.08
2000-07-17,62.96
2000-07-18,59.36
2000-07-19,60.44
2000-07-20,64.22
2000-07-21,64.04
2000-07-22,
2000-07-23,58.82
2000-07-24,61.52
2000-07-25,63.68
2000-07-26,55.94
2000-07-27,56.12
2000-07-28,63.68
2000-07-29,67.28
2000-07-30,67.28
2000-07-31,68.9
2000-08-01,68.18
2000-08-02,65.66
2000-08-03,68.36
2000-08-04,68.36
2000-08-05,62.6
2000-08-06,64.4
2000-08-07,64.58
2000-08-08,65.66
2000-08-09,66.02
2000-08-10,59.9
2000-08-11,46.76
2000-08-12,57.2
2000-08-13,58.28
2000-08-14,54.68
2000-08-15,56.48
2000-08-16,56.12
2000-08-17,56.48
2000-08-18,52.7
2000-08-19,51.08
2000-08-20,50.54
2000-08-21,54.14
2000-08-22,61.7
2000-08-23,59.9
2000-08-24,55.4
2000-08-25,54.32
2000-08-26,57.02
2000-08-27,55.76
2000-08-28,57.02
2000-08-29,57.92
2000-08-30,61.34
2000-08-31,54.68
2000-09-01,51.26
2000-09-02,37.76
2000-09-03,40.64
2000-09-04,39.56
2000-09-05,37.58
2000-09-06,43.16
2000-09-07,45.86
2000-09-08,48.2
2000-09-09,41.72
2000-09-10,44.06
2000-09-11,53.24
2000-09-12,52.34
2000-09-13,53.78
2000-09-14,57.92
2000-09-15,54.14
2000-09-16,49.28
2000-09-17,50.9
2000-09-18,57.2
2000-09-19,61.52
2000-09-20,59.72
2000-09-21,55.94
2000-09-22,46.4
2000-09-23,32.54
2000-09-24,38.3
2000-09-25,39.2
2000-09-26,39.38
2000-09-27,41.9
2000-09-28,53.24
2000-09-29,47.66
2000-09-30,54.32
2000-10-01,50.54
2000-10-02,45.86
2000-10-03,45.14
2000-10-04,41.36
2000-10-05,44.78
2000-10-06,46.76
2000-10-07,44.96
2000-10-08,52.7
2000-10-09,44.42
2000-10-10,39.56
2000-10-11,34.34
2000-10-12,35.06
2000-10-13,42.8
2000-10-14,39.74
2000-10-15,37.4
2000-10-16,33.8
2000-10-17,42.62
2000-10-18,42.8
2000-10-19,40.46
2000-10-20,39.74
2000-10-21,33.26
2000-10-22,29.3
2000-10-23,32.72
2000-10-24,32.9
2000-10-25,42.62
2000-10-26,34.52
2000-10-27,30.02
2000-10-28,41.18
2000-10-29,32.72
2000-10-30,34.16
2000-10-31,30.92
2000-11-01,30.2
2000-11-02,35.78
2000-11-03,39.56
2000-11-04,31.82
2000-11-05,28.58
2000-11-06,35.96
2000-11-07,27.14
2000-11-08,39.02
2000-11-09,26.24
2000-11-10,21.92
2000-11-11,23.18
2000-11-12,18.86
2000-11-13,22.64
2000-11-14,23.54
2000-11-15,25.52
2000-11-16,22.82
2000-11-17,14.72
2000-11-18,17.6
2000-11-19,20.84
2000-11-20,26.78
2000-11-21,31.82
2000-11-22,29.66
2000-11-23,23.18
2000-11-24,29.66
2000-11-25,25.7
2000-11-26,32.36
2000-11-27,33.26
2000-11-28,28.58
2000-11-29,42.44
2000-11-30,31.28
2000-12-01,28.76
2000-12-02,26.06
2000-12-03,25.7
2000-12-04,28.04
2000-12-05,27.32
2000-12-06,27.32
2000-12-07,25.52
2000-12-08,24.8
2000-12-09,34.88
2000-12-10,30.02
2000-12-11,20.12
2000-12-12,28.76
2000-12-13,24.8
2000-12-14,27.86
2000-12-15,33.98
2000-12-16,26.24
2000-12-17,30.2
2000-12-18,8.6
2000-12-19,22.64
2000-12-20,23.36
2000-12-21,37.04
2000-12-22,32.18
2000-12-23,27.32
2000-12-24,27.14
2000-12-25,15.44
2000-12-26,17.24
2000-12-27,25.34
2000-12-28,20.84
2000-12-29,22.64
2000-12-30,22.28
2000-12-31,23.0
2001-01-01,18.32
2001-01-02,28.58
2001-01-03,32.18
2001-01-04,33.44
2001-01-05,31.28
2001-01-06,25.52
2001-01-07,25.34
2001-01-08,38.84
2001-01-09,
2001-01-10,27.14
2001-01-11,32.72
2001-01-12,29.3
2001-01-13,16.52
2001-01-14,15.62
2001-01-15,17.78
2001-01-16,19.22
2001-01-17,6.08
2001-01-18,15.44
2001-01-19,31.82
2001-01-20,17.24
2001-01-21,37.04
2001-01-22,30.2
2001-01-23,31.82
2001-01-24,32.36
2001-01-25,22.1
2001-01-26,27.5
2001-01-27,26.6
2001-01-28,16.88
2001-01-29,29.48
2001-01-30,13.28
2001-01-31,13.1
2001-02-01,21.56
2001-02-02,34.16
2001-02-03,33.08
2001-02-04,33.8
2001-02-05,26.6
2001-02-06,22.64
2001-02-07,18.86
2001-02-08,11.3
2001-02-09,25.52
2001-02-10,21.56
2001-02-11,23.36
2001-02-12,11.84
2001-02-13,19.94
2001-02-14,20.12
2001-02-15,16.16
2001-02-16,28.4
2001-02-17,30.38
2001-02-18,32.36
2001-02-19,32.0
2001-02-20,29.12
2001-02-21,32.54
2001-02-22,32.0
2001-02-23,25.52
2001-02-24,23.54
2001-02-25,
2001-02-26,22.64
2001-02-27,26.78
2001-02-28,24.44
2001-03-01,23.9
2001-03-02,29.48
2001-03-03,12.92
2001-03-04,27.5
2001-03-05,38.12
2001-03-06,32.36
2001-03-07,37.4
2001-03-08,36.32
2001-03-09,24.98
2001-03-10,27.32
2001-03-11,30.2
2001-03-12,33.62
2001-03-13,29.12
2001-03-14,30.92
2001-03-15,26.78
2001-03-16,29.84
2001-03-17,30.92
2001-03-18,36.86
2001-03-19,46.22
2001-03-20,41.54
2001-03-21,41.54
2001-03-22,38.12
2001-03-23,43.52
2001-03-24,43.88
2001-03-25,41.72
2001-03-26,29.3
2001-03-27,29.12
2001-03-28,39.92
2001-03-29,36.32
2001-03-30,37.76
2001-03-31,36.86
2001-04-01,37.22
2001-04-02,28.22
2001-04-03,24.26
2001-04-04,23.54
2001-04-05,30.38
2001-04-06,32.0
2001-04-07,25.52
2001-04-08,18.86
2001-04-09,22.1
2001-04-10,25.88
2001-04-11,32.54
2001-04-12,25.34
2001-04-13,31.1
2001-04-14,24.98
2001-04-15,33.44
2001-04-16,40.1
2001-04-17,41.0
2001-04-18,42.08
2001-04-19,32.9
2001-04-20,32.18
2001-04-21,29.84
2001-04-22,33.8
2001-04-23,41.18
2001-04-24,41.9
2001-04-25,44.6
2001-04-26,48.02
2001-04-27,45.32
2001-04-28,42.8
2001-04-29,30.02
2001-04-30,41.72
2001-05-01,33.08
2001-05-02,29.48
2001-05-03,35.24
2001-05-04,36.68
2001-05-05,46.04
2001-05-06,39.56
2001-05-07,50.0
2001-05-08,58.82
2001-05-09,50.9
2001-05-10,47.48
2001-05-11,46.58
2001-05-12,53.78
2001-05-13,51.26
2001-05-14,50.54
2001-05-15,43.52
2001-05-16,40.1
2001-05-17,41.9
2001-05-18,46.4
2001-05-19,50.72
2001-05-20,51.26
2001-05-21,51.62
2001-05-22,55.22
2001-05-23,55.04
2001-05-24,61.16
2001-05-25,58.28
2001-05-26,63.86
2001-05-27,56.66
2001-05-28,44.78
2001-05-29,41.18
2001-05-30,49.64
2001-05-31,60.98
2001-06-01,57.92
2001-06-02,43.52
2001-06-03,33.62
2001-06-04,35.96
2001-06-05,42.62
2001-06-06,44.06
2001-06-07,49.28
2001-06-08,53.96
2001-06-09,53.06
2001-06-10,48.38
2001-06-11,47.12
2001-06-12,45.5
2001-06-13,38.48
2001-06-14,51.62
2001-06-15,49.64
2001-06-16,52.16
2001-06-17,54.14
2001-06-18,48.38
2001-06-19,54.32
2001-06-20,60.8
2001-06-21,65.3
2001-06-22,60.08
2001-06-23,59.0
2001-06-24,48.38
2001-06-25,44.6
2001-06-26,44.96
2001-06-27,51.26
2001-06-28,46.04
2001-06-29,50.54
2001-06-30,57.2
2001-07-01,57.02
2001-07-02,61.7
2001-07-03,69.26
2001-07-04,64.58
2001-07-05,72.5
2001-07-06,60.44
2001-07-07,60.62
2001-07-08,62.6
2001-07-09,66.56
2001-07-10,64.04
2001-07-11,55.58
2001-07-12,50.9
2001-07-13,58.82
2001-07-14,61.7
2001-07-15,52.16
2001-07-16,55.4
2001-07-17,46.58
2001-07-18,48.38
2001-07-19,54.86
2001-07-20,54.14
2001-07-21,52.52
2001-07-22,56.66
2001-07-23,59.72
2001-07-24,63.68
2001-07-25,64.4
2001-07-26,63.32
2001-07-27,63.5
2001-07-28,59.0
2001-07-29,54.68
2001-07-30,52.34
2001-07-31,48.38
2001-08-01,53.96
2001-08-02,58.46
2001-08-03,57.38
2001-08-04,58.28
2001-08-05,55.76
2001-08-06,60.08
2001-08-07,62.24
2001-08-08,70.88
2001-08-09,69.8
2001-08-10,66.02
2001-08-11,64.22
2001-08-12,63.14
2001-08-13,60.44
2001-08-14,57.2
2001-08-15,64.04
2001-08-16,64.94
2001-08-17,63.86
2001-08-18,60.44
2001-08-19,54.32
2001-08-20,55.58
2001-08-21,54.5
2001-08-22,57.74
2001-08-23,56.66
2001-08-24,52.52
2001-08-25,57.38
2001-08-26,66.38
2001-08-27,64.4
2001-08-28,59.54
2001-08-29,63.14
2001-08-30,67.1
2001-08-31,61.34
2001-09-01,58.82
2001-09-02,56.84
2001-09-03,56.84
2001-09-04,57.92
2001-09-05,54.5
2001-09-06,38.48
2001-09-07,50.0
2001-09-08,52.52
2001-09-09,53.6
2001-09-10,54.5
2001-09-11,52.52
2001-09-12,54.14
2001-09-13,51.62
2001-09-14,45.32
2001-09-15,53.96
2001-09-16,49.28
2001-09-17,47.48
2001-09-18,53.78
2001-09-19,53.24
2001-09-20,49.82
2001-09-21,49.64
2001-09-22,51.26
2001-09-23,54.14
2001-09-24,57.38
2001-09-25,53.24
2001-09-26,43.16
2001-09-27,45.14
2001-09-28,42.62
2001-09-29,39.38
2001-09-30,49.1
2001-10-01,47.48
2001-10-02,52.16
2001-10-03,50.54
2001-10-04,47.3
2001-10-05,47.3
2001-10-06,50.36
2001-10-07,44.6
2001-10-08,48.2
2001-10-09,32.18
2001-10-10,30.74
2001-10-11,47.12
2001-10-12,33.08
2001-10-13,39.74
2001-10-14,43.7
2001-10-15,40.1
2001-10-16,43.7
2001-10-17,46.04
2001-10-18,30.56
2001-10-19,36.32
2001-10-20,44.78
2001-10-21,38.84
2001-10-22,43.88
2001-10-23,45.14
2001-10-24,24.98
2001-10-25,26.96
2001-10-26,36.86
2001-10-27,50.36
2001-10-28,45.32
2001-10-29,43.34
2001-10-30,42.44
2001-10-31,37.04
2001-11-01,37.04
2001-11-02,34.52
2001-11-03,30.38
2001-11-04,33.08
2001-11-05,33.62
2001-11-06,31.64
2001-11-07,29.84
2001-11-08,25.34
2001-11-09,35.42
2001-11-10,32.18
2001-11-11,45.86
2001-11-12,46.58
2001-11-13,33.26
2001-11-14,37.94
2001-11-15,41.9
2001-11-16,39.2
2001-11-17,35.6
2001-11-18,25.16
2001-11-19,37.22
2001-11-20,35.42
2001-11-21,36.86
2001-11-22,39.56
2001-11-23,29.48
2001-11-24,31.28
2001-11-25,24.98
2001-11-26,24.98
2001-11-27,6.44
2001-11-28,24.44
2001-11-29,26.96
2001-11-30,20.48
2001-12-01,30.2
2001-12-02,30.02
2001-12-03,28.04
2001-12-04,11.3
2001-12-05,26.78
2001-12-06,34.88
2001-12-07,26.78
2001-12-08,17.42
2001-12-09,28.4
2001-12-10,8.78
2001-12-11,19.76
2001-12-12,25.88
2001-12-13,29.3
2001-12-14,30.02
2001-12-15,11.48
2001-12-16,28.94
2001-12-17,32.18
2001-12-18,25.88
2001-12-19,30.38
2001-12-20,35.6
2001-12-21,18.14
2001-12-22,26.42
2001-12-23,27.68
2001-12-24,6.8
2001-12-25,16.7
2001-12-26,33.26
2001-12-27,34.88
2001-12-28,33.8
2001-12-29,35.6
2001-12-30,33.08
2001-12-31,34.7
2002-01-01,34.88
2002-01-02,36.86
2002-01-03,31.64
2002-01-04,21.02
2002-01-05,33.44
2002-01-06,34.16
2002-01-07,40.1
2002-01-08,37.22
2002-01-09,27.14
2002-01-10,23.18
2002-01-11,29.84
2002-01-12,42.62
2002-01-13,20.84
2002-01-14,24.44
2002-01-15,21.74
2002-01-16,18.5
2002-01-17,25.34
2002-01-18,19.22
2002-01-19,20.66
2002-01-20,22.46
2002-01-21,31.82
2002-01-22,12.92
2002-01-23,17.06
2002-01-24,16.16
2002-01-25,30.92
2002-01-26,29.3
2002-01-27,12.02
2002-01-28,1.04
2002-01-29,1.76
2002-01-30,7.34
2002-01-31,8.78
2002-02-01,25.52
2002-02-02,17.24
2002-02-03,25.52
2002-02-04,14.54
2002-02-05,16.16
2002-02-06,20.84
2002-02-07,33.08
2002-02-08,24.98
2002-02-09,15.62
2002-02-10,21.02
2002-02-11,25.34
2002-02-12,27.68
2002-02-13,33.98
2002-02-14,26.24
2002-02-15,30.2
2002-02-16,33.26
2002-02-17,34.88
2002-02-18,27.68
2002-02-19,31.64
2002-02-20,31.82
2002-02-21,37.22
2002-02-22,38.66
2002-02-23,36.14
2002-02-24,33.62
2002-02-25,27.86
2002-02-26,27.14
2002-02-27,33.26
2002-02-28,36.5
2002-03-01,21.2
2002-03-02,26.06
2002-03-03,25.52
2002-03-04,25.16
2002-03-05,28.94
2002-03-06,32.72
2002-03-07,31.82
2002-03-08,12.02
2002-03-09,20.3
2002-03-10,28.58
2002-03-11,33.08
2002-03-12,36.86
2002-03-13,24.26
2002-03-14,20.48
2002-03-15,22.46
2002-03-16,24.98
2002-03-17,21.92
2002-03-18,15.08
2002-03-19,31.64
2002-03-20,31.64
2002-03-21,36.5
2002-03-22,37.22
2002-03-23,36.32
2002-03-24,32.36
2002-03-25,28.04
2002-03-26,28.4
2002-03-27,33.8
2002-03-28,37.04
2002-03-29,39.56
2002-03-30,36.32
2002-03-31,37.94
2002-04-01,44.24
2002-04-02,47.66
2002-04-03,44.6
2002-04-04,44.6
2002-04-05,51.44
2002-04-06,38.84
2002-04-07,34.7
2002-04-08,39.02
2002-04-09,47.66
2002-04-10,35.24
2002-04-11,42.98
2002-04-12,35.96
2002-04-13,43.34
2002-04-14,53.96
2002-04-15,30.74
2002-04-16,28.04
2002-04-17,26.96
2002-04-18,24.8
2002-04-19,30.74
2002-04-20,32.72
2002-04-21,33.8
2002-04-22,36.86
2002-04-23,43.16
2002-04-24,39.2
2002-04-25,41.36
2002-04-26,44.06
2002-04-27,35.96
2002-04-28,31.28
2002-04-29,44.96
2002-04-30,31.82
2002-05-01,31.64
2002-05-02,40.64
2002-05-03,42.98
2002-05-04,40.64
2002-05-05,42.8
2002-05-06,40.28
2002-05-07,32.36
2002-05-08,30.38
2002-05-09,38.48
2002-05-10,33.26
2002-05-11,33.98
2002-05-12,38.84
2002-05-13,48.38
2002-05-14,37.76
2002-05-15,44.42
2002-05-16,41.0
2002-05-17,48.02
2002-05-18,51.08
2002-05-19,48.02
2002-05-20,39.02
2002-05-21,34.7
2002-05-22,31.28
2002-05-23,34.16
2002-05-24,44.06
2002-05-25,48.56
2002-05-26,48.74
2002-05-27,50.54
2002-05-28,48.2
2002-05-29,57.02
2002-05-30,55.22
2002-05-31,50.9
2002-06-01,57.38
2002-06-02,45.86
2002-06-03,49.28
2002-06-04,49.82
2002-06-05,52.34
2002-06-06,46.58
2002-06-07,45.5
2002-06-08,34.34
2002-06-09,31.28
2002-06-10,41.0
2002-06-11,42.62
2002-06-12,51.26
2002-06-13,56.48
2002-06-14,59.36
2002-06-15,60.08
2002-06-16,56.84
2002-06-17,51.62
2002-06-18,53.24
2002-06-19,43.88
2002-06-20,53.24
2002-06-21,58.64
2002-06-22,53.78
2002-06-23,52.7
2002-06-24,57.92
2002-06-25,63.5
2002-06-26,68.36
2002-06-27,60.98
2002-06-28,60.44
2002-06-29,59.9
2002-06-30,57.2
2002-07-01,54.14
2002-07-02,59.72
2002-07-03,61.16
2002-07-04,52.16
2002-07-05,54.68
2002-07-06,58.46
2002-07-07,60.98
2002-07-08,56.12
2002-07-09,63.32
2002-07-10,63.86
2002-07-11,76.28
2002-07-12,79.52
2002-07-13,64.58
2002-07-14,66.38
2002-07-15,65.84
2002-07-16,59.0
2002-07-17,59.36
2002-07-18,60.8
2002-07-19,64.4
2002-07-20,63.68
2002-07-21,69.26
2002-07-22,70.52
2002-07-23,52.88
2002-07-24,59.72
2002-07-25,62.24
2002-07-26,60.8
2002-07-27,61.16
2002-07-28,62.78
2002-07-29,65.48
2002-07-30,67.1
2002-07-31,59.18
2002-08-01,63.5
2002-08-02,59.18
2002-08-03,55.04
2002-08-04,53.24
2002-08-05,39.2
2002-08-06,44.96
2002-08-07,47.48
2002-08-08,52.34
2002-08-09,59.36
2002-08-10,62.78
2002-08-11,61.16
2002-08-12,65.84
2002-08-13,67.28
2002-08-14,66.92
2002-08-15,65.12
2002-08-16,62.6
2002-08-17,62.24
2002-08-18,58.82
2002-08-19,60.26
2002-08-20,50.9
2002-08-21,44.78
2002-08-22,49.82
2002-08-23,57.92
2002-08-24,50.9
2002-08-25,56.12
2002-08-26,51.8
2002-08-27,54.5
2002-08-28,60.44
2002-08-29,62.06
2002-08-30,63.14
2002-08-31,53.6
2002-09-01,60.98
2002-09-02,62.6
2002-09-03,60.26
2002-09-04,52.34
2002-09-05,48.02
2002-09-06,45.86
2002-09-07,37.04
2002-09-08,41.54
2002-09-09,44.96
2002-09-10,50.0
2002-09-11,61.52
2002-09-12,59.36
2002-09-13,65.66
2002-09-14,56.48
2002-09-15,62.96
2002-09-16,51.08
2002-09-17,53.6
2002-09-18,43.88
2002-09-19,49.1
2002-09-20,55.94
2002-09-21,52.7
2002-09-22,52.7
2002-09-23,53.42
2002-09-24,60.44
2002-09-25,55.04
2002-09-26,44.78
2002-09-27,54.68